• In Deutschland
  • Länderverzeichnis
  • Für 7 Tage
  • Wassertemperatur
  • Satellitenkarten
  • Wetterkarte
  • Widgets
  • user-avatar
    Anmelden

    Stündliche Wetter Mühlacker

    Heute, 18 Februar, Sonntag

    Zeit Temperatur Niederschläge Wind Luftdruck Luftfeuchtigkeit
    00:00 0°C° 0 mm 1 m/S 745 mmHg 93%
    01:00 0°C° 0 mm 1 m/S 745 mmHg 92%
    02:00 0°C° 0 mm 1 m/S 746 mmHg 93%
    03:00 -1°C° 0 mm 0 m/S 746 mmHg 93%
    04:00 -1°C° 0 mm 0 m/S 746 mmHg 93%
    05:00 -2°C° 0 mm 0 m/S 746 mmHg 93%
    06:00 -2°C° 0 mm 0 m/S 746 mmHg 93%
    07:00 -2°C° 0 mm 0 m/S 746 mmHg 93%
    08:00 0°C° 0 mm 1 m/S 746 mmHg 88%
    09:00 +1°C° 0 mm 1 m/S 746 mmHg 83%
    10:00 +2°C° 0 mm 1 m/S 746 mmHg 78%
    11:00 +3°C° 0 mm 1 m/S 746 mmHg 74%
    12:00 +4°C° 0 mm 1 m/S 746 mmHg 69%
    13:00 +4°C° 0 mm 2 m/S 746 mmHg 64%
    14:00 +4°C° 0 mm 2 m/S 746 mmHg 65%
    15:00 +4°C° 0 mm 2 m/S 745 mmHg 65%
    16:00 +4°C° 0 mm 2 m/S 745 mmHg 65%
    17:00 +3°C° 0 mm 2 m/S 745 mmHg 71%
    18:00 +2°C° 0 mm 2 m/S 745 mmHg 76%
    19:00 +1°C° 0 mm 2 m/S 745 mmHg 81%
    20:00 +1°C° 0 mm 2 m/S 745 mmHg 82%
    21:00 +1°C° 0 mm 1 m/S 745 mmHg 83%
    22:00 +1°C° 0 mm 1 m/S 744 mmHg 85%
    23:00 +1°C° 0 mm 1 m/S 744 mmHg 86%

    Morgen, 19 Februar, Montag

    Zeit Temperatur Niederschläge Wind Luftdruck Luftfeuchtigkeit
    00:00 0°C° 0 mm 1 m/S 744 mmHg 87%
    01:00 0°C° 0 mm 1 m/S 744 mmHg 88%
    02:00 -1°C° 0 mm 1 m/S 743 mmHg 88%
    03:00 -1°C° 0 mm 1 m/S 743 mmHg 89%
    04:00 -1°C° 0 mm 1 m/S 743 mmHg 89%
    05:00 -1°C° 0 mm 1 m/S 743 mmHg 89%
    06:00 -1°C° 0 mm 1 m/S 742 mmHg 89%
    07:00 -1°C° 0 mm 1 m/S 742 mmHg 89%
    08:00 0°C° 0 mm 1 m/S 742 mmHg 85%
    09:00 +1°C° 0 mm 1 m/S 742 mmHg 80%
    10:00 +2°C° 0 mm 1 m/S 742 mmHg 75%
    11:00 +3°C° 0 mm 1 m/S 742 mmHg 71%
    12:00 +4°C° 0 mm 1 m/S 742 mmHg 67%
    13:00 +5°C° 0 mm 1 m/S 741 mmHg 63%
    14:00 +5°C° 0 mm 1 m/S 741 mmHg 62%
    15:00 +5°C° 0 mm 1 m/S 741 mmHg 62%
    16:00 +5°C° 0 mm 1 m/S 740 mmHg 62%
    17:00 +4°C° 0 mm 1 m/S 740 mmHg 68%
    18:00 +1°C° 0 mm 0 m/S 740 mmHg 73%
    19:00 0°C° 0 mm 0 m/S 740 mmHg 78%
    20:00 0°C° 0 mm 0 m/S 740 mmHg 80%
    21:00 -1°C° 0 mm 0 m/S 740 mmHg 81%
    22:00 -1°C° 0 mm 0 m/S 740 mmHg 82%
    23:00 -1°C° 0 mm 0 m/S 740 mmHg 83%

    übermorgen, 20 Februar, Dienstag

    Zeit Temperatur Niederschläge Wind Luftdruck Luftfeuchtigkeit
    00:00 -1°C° 0 mm 0 m/S 740 mmHg 83%
    01:00 -2°C° 0 mm 0 m/S 740 mmHg 84%
    02:00 -2°C° 0 mm 0 m/S 739 mmHg 84%
    03:00 -2°C° 0 mm 0 m/S 739 mmHg 84%
    04:00 -2°C° 0 mm 0 m/S 739 mmHg 85%
    05:00 -2°C° 0 mm 0 m/S 739 mmHg 85%
    06:00 -2°C° 0 mm 0 m/S 739 mmHg 85%
    07:00 -2°C° 0 mm 0 m/S 739 mmHg 84%
    08:00 -1°C° 0 mm 0 m/S 739 mmHg 79%
    09:00 +1°C° 0 mm 0 m/S 739 mmHg 73%
    10:00 +2°C° 0 mm 0 m/S 739 mmHg 68%
    11:00 +4°C° 0 mm 1 m/S 739 mmHg 63%
    12:00 +5°C° 0 mm 1 m/S 739 mmHg 59%
    13:00 +6°C° 0 mm 1 m/S 738 mmHg 55%
    14:00 +6°C° 0 mm 1 m/S 738 mmHg 55%
    15:00 +5°C° 0 mm 2 m/S 738 mmHg 56%
    16:00 +5°C° 0 mm 2 m/S 738 mmHg 57%
    17:00 +3°C° 0 mm 2 m/S 738 mmHg 62%
    18:00 +2°C° 0 mm 2 m/S 739 mmHg 68%
    19:00 +1°C° 0 mm 1 m/S 739 mmHg 73%
    20:00 +1°C° 0 mm 1 m/S 739 mmHg 75%
    21:00 0°C° 0 mm 1 m/S 739 mmHg 77%
    22:00 0°C° 0 mm 1 m/S 740 mmHg 79%
    23:00 0°C° 0 mm 1 m/S 740 mmHg 81%

    21 Februar, Mittwoch

    Zeit Temperatur Niederschläge Wind Luftdruck Luftfeuchtigkeit
    00:00 0°C° 0 mm 1 m/S 740 mmHg 82%
    01:00 -1°C° 0 mm 1 m/S 740 mmHg 83%
    02:00 -1°C° 0 mm 1 m/S 740 mmHg 84%
    03:00 -1°C° 0 mm 1 m/S 740 mmHg 85%
    04:00 -1°C° 0 mm 1 m/S 740 mmHg 86%
    05:00 -1°C° 0 mm 1 m/S 740 mmHg 87%
    06:00 -3°C° 0 mm 2 m/S 740 mmHg 87%
    07:00 -3°C° 0 mm 2 m/S 741 mmHg 87%
    08:00 -2°C° 0 mm 2 m/S 741 mmHg 82%
    09:00 -1°C° 0 mm 2 m/S 741 mmHg 76%
    10:00 0°C° 0 mm 3 m/S 741 mmHg 71%
    11:00 +1°C° 0 mm 3 m/S 741 mmHg 67%
    12:00 +1°C° 0 mm 3 m/S 741 mmHg 63%
    13:00 +2°C° 0 mm 3 m/S 740 mmHg 59%
    14:00 +2°C° 0 mm 3 m/S 740 mmHg 59%
    15:00 +2°C° 0 mm 3 m/S 740 mmHg 59%
    16:00 +1°C° 0 mm 4 m/S 739 mmHg 58%
    17:00 +1°C° 0 mm 3 m/S 739 mmHg 62%
    18:00 0°C° 0 mm 3 m/S 739 mmHg 65%
    19:00 -1°C° 0 mm 3 m/S 739 mmHg 69%
    20:00 -1°C° 0 mm 3 m/S 739 mmHg 70%
    21:00 -2°C° 0 mm 3 m/S 739 mmHg 72%
    22:00 -2°C° 0 mm 3 m/S 739 mmHg 73%
    23:00 -2°C° 0 mm 3 m/S 739 mmHg 74%

    22 Februar, Donnerstag

    Zeit Temperatur Niederschläge Wind Luftdruck Luftfeuchtigkeit
    00:00 -4°C° 0 mm 3 m/S 738 mmHg 74%
    01:00 -4°C° 0 mm 3 m/S 738 mmHg 75%
    02:00 -4°C° 0 mm 3 m/S 738 mmHg 75%
    03:00 -4°C° 0 mm 3 m/S 737 mmHg 75%
    04:00 -4°C° 0 mm 3 m/S 737 mmHg 75%
    05:00 -4°C° 0 mm 4 m/S 737 mmHg 74%
    06:00 -4°C° 0 mm 4 m/S 737 mmHg 73%
    07:00 -4°C° 0 mm 4 m/S 737 mmHg 73%
    08:00 -5°C° 0 mm 5 m/S 736 mmHg 68%
    09:00 -4°C° 0 mm 5 m/S 736 mmHg 64%
    10:00 -3°C° 0 mm 6 m/S 736 mmHg 60%
    11:00 -2°C° 0 mm 6 m/S 736 mmHg 57%
    12:00 -1°C° 0 mm 6 m/S 736 mmHg 54%
    13:00 -1°C° 0 mm 6 m/S 735 mmHg 51%
    14:00 -1°C° 0 mm 6 m/S 735 mmHg 53%
    15:00 -1°C° 0 mm 6 m/S 735 mmHg 54%
    16:00 -1°C° 0 mm 6 m/S 735 mmHg 56%
    17:00 -1°C° 0 mm 5 m/S 735 mmHg 60%
    18:00 -1°C° 0 mm 5 m/S 735 mmHg 65%
    19:00 -2°C° 0 mm 5 m/S 735 mmHg 69%
    20:00 -4°C° 0,1 mm 5 m/S 735 mmHg 71%
    21:00 -4°C° 0,1 mm 5 m/S 735 mmHg 73%
    22:00 -3°C° 0,1 mm 4 m/S 735 mmHg 75%
    23:00 -3°C° 0 mm 4 m/S 734 mmHg 75%

    23 Februar, Freitag

    Zeit Temperatur Niederschläge Wind Luftdruck Luftfeuchtigkeit
    00:00 -3°C° 0 mm 4 m/S 734 mmHg 76%
    01:00 -4°C° 0 mm 4 m/S 734 mmHg 76%
    02:00 -4°C° 0 mm 4 m/S 734 mmHg 76%
    03:00 -4°C° 0 mm 4 m/S 733 mmHg 76%
    04:00 -4°C° 0 mm 4 m/S 733 mmHg 76%
    05:00 -4°C° 0 mm 4 m/S 733 mmHg 76%
    06:00 -4°C° 0 mm 4 m/S 733 mmHg 76%
    07:00 -4°C° 0 mm 4 m/S 733 mmHg 76%
    08:00 -4°C° 0 mm 4 m/S 733 mmHg 73%
    09:00 -3°C° 0 mm 4 m/S 733 mmHg 70%
    10:00 -3°C° 0 mm 4 m/S 733 mmHg 67%
    11:00 -2°C° 0 mm 4 m/S 733 mmHg 65%
    12:00 -2°C° 0 mm 4 m/S 733 mmHg 63%
    13:00 -1°C° 0 mm 4 m/S 732 mmHg 60%
    14:00 -1°C° 0 mm 4 m/S 732 mmHg 61%
    15:00 -1°C° 0 mm 4 m/S 732 mmHg 61%
    16:00 -1°C° 0 mm 4 m/S 732 mmHg 61%
    17:00 -2°C° 0 mm 4 m/S 732 mmHg 63%
    18:00 -2°C° 0 mm 3 m/S 733 mmHg 66%
    19:00 -4°C° 0 mm 3 m/S 733 mmHg 68%
    20:00 -4°C° 0 mm 3 m/S 733 mmHg 67%
    21:00 -4°C° 0 mm 3 m/S 733 mmHg 66%
    22:00 -5°C° 0 mm 3 m/S 733 mmHg 65%
    23:00 -5°C° 0 mm 3 m/S 733 mmHg 65%
    Mehr zeigen